Weather in Karlshamn

Sweden     56°10′39″N   14°51′25″E
temp.,
°C
wind,
m/s
gust,
m/s
humid.,
%
clouds,
%
prec.,
mm/h
press.,
hPa
HPBL,
m
16 june, wed
wed1623:00+10wnw278053 0.0 1019158
02:00+8wnw25935 0.0 101980
05:00+7wnw23955 0.0 102064
08:00+14w35621 0.0 1020643
11:00+20sw34370 0.0 10191313
14:00+21ssw54403 0.0 10191334
17:00+21ssw44475 0.0 10191005
20:00+17s36625 0.0 1019360
17 june, thu
thu1723:00+11ssw22875 0.0 102016
02:00+10se1192100 0.0 102010
05:00+11ese1189100 0.0 101912
08:00+17ese3566100 0.0 1019365
11:00+22sse46546 0.0 1019797
14:00+23sse56505 0.0 1019909
17:00+22se47555 0.0 1018713
20:00+19ese37655 0.0 1017274
18 june, fri
fri1823:00+15e26885 0.0 1017123
02:00+16se212950 0.0 1016298
05:00+16se28979 0.0 1016212
08:00+21sse47710 0.0 1016369
11:00+25s46580 0.0 1016559
14:00+26s47520 0.0 1016688
17:00+27s46500 0.0 1016721
20:00+23se24670 0.0 1016206
19 june, sat
sat1923:00+17ese22895 0.0 101632
02:00+17e23840 0.0 101647
05:00+17ese25913 0.0 1015111
08:00+22sse47695 0.0 1015343
11:00+27s48532 0.0 1015605
14:00+28s5749100 0.0 1015805
17:00+27s4757100 0.0 1014713
20:00+25wsw48625 0.0 1015814
20 june, sun
sun2023:00+17w399249 0.0 1016225
02:00+15wnw2298100 0.0 101751
05:00+14wnw11988 0.0 101620
08:00+19wsw236912 0.0 1016429
11:00+25ssw3446100 0.0 1015717
14:00+26sse3348100 0.0 1014817
17:00+26se455142 0.0 1014541
20:00+23ese36705 0.0 1013248